Simultaneous Nadir Overpasses (SNOs) Predictions

Prediction of SNOs between NOAA-19 and NPP Satellite Orbit:

Table of predicted SNOs for the next 14.0 days since TLE Epoch: 10/10/2015
Index Date (NOAA-19) Time (NOAA-19) Lat,Lon (NOAA-19) SZA (NOAA-19 ) Date (NPP) Time (NPP) Lat,Lon (NPP) SZA (NPP ) Distance(km) Time Diff (sec)
1 10/10/2015 21:39:33 81.04, 162.46 90.88 10/10/2015 21:40:32 81.03, 162.34 90.86 2.20 59
2 10/10/2015 22:30:30 -81.04, -30.53 89.08 10/10/2015 22:31:17 -81.04, -30.48 89.11 0.94 47
3 10/10/2015 23:21:36 81.04, 136.75 90.93 10/10/2015 23:22:02 81.04, 136.91 90.90 2.76 26
4 10/11/2015 00:12:32 -81.04, -55.87 89.08 10/11/2015 00:12:47 -81.04, -55.90 89.08 0.79 15
5 10/11/2015 01:03:38 81.04, 111.42 90.93 10/11/2015 01:03:32 81.04, 111.49 90.93 1.11 6
6 10/11/2015 01:54:34 -81.04, -81.20 89.07 10/11/2015 01:54:17 -81.04, -81.33 89.04 2.37 17
7 10/11/2015 02:45:40 81.04, 86.09 90.94 10/11/2015 02:45:02 81.04, 86.06 90.96 0.73 38
8 10/11/2015 03:36:36 -81.03,-106.53 89.07 10/11/2015 03:35:46 -81.03,-106.39 89.06 2.61 50
9 10/11/2015 04:27:42 81.03, 60.76 90.94 10/11/2015 04:26:32 81.04, 60.64 91.00 2.36 70
10 10/24/2015 02:50:02 -81.04, -95.43 84.38 10/24/2015 02:51:15 -81.04, -95.45 84.42 0.63 73
11 10/24/2015 03:41:08 81.04, 71.90 95.62 10/24/2015 03:42:00 81.04, 71.77 95.61 2.32 52
12 10/24/2015 04:32:04 -81.04,-120.76 84.38 10/24/2015 04:32:45 -81.04,-120.88 84.39 2.04 41
13 10/24/2015 05:23:11 81.04, 46.19
